Погода в Вере

Испания     37°14′43″N   1°51′50″W
темп.,
°C
ветер,
м/с
пор.,
м/с
влажн.,
%
обл.,
%
осадки,
мм/ч
давл.,
гПа
погр.,
м
15 мая, сб
сб1523:00+19всв2266100 0.0 101829
02:00+18всв00735 0.0 101711
05:00+18ссв11715 0.0 101612
08:00+18ююв11718 0.0 101614
11:00+21юв22575 0.0 1017292
14:00+21юв43570 0.0 1016294
17:00+21ююв44570 0.0 1014279
20:00+21вюв226163 0.0 1013135
16 мая, вс
вс1623:00+20св1162100 0.0 101420
02:00+19всв1165100 0.0 101411
05:00+19вюв116686 0.0 101311
08:00+20ссз11578 0.0 101311
11:00+25юв21393 0.0 1013341
14:00+24вюв33452 0.0 1013259
17:00+24ююв33470 0.0 1011265
20:00+23вюв11500 0.0 101090
17 мая, пн
пн1723:00+21в22581 0.0 101216
02:00+19ю11740 0.0 101221
05:00+22ссз335049 0.0 101112
08:00+23ссз224474 0.0 101211
11:00+20в58784 0.0 1016304
14:00+20вюв457799 0.0 1017439
17:00+20в4478100 0.0 1016408
20:00+19в338321 0.0 1017295
18 мая, вт
вт1823:00+18всв2386100 0.0 1019181
02:00+18всв22860 0.0 1019112
05:00+18всв22886 0.0 101964
08:00+18св34835 0.0 1021227
11:00+20в557332 0.0 1022665
14:00+20в667551 0.0 1023565
17:00+19в5577100 0.0 1022531
20:00+19всв4478100 0.0 1022523
19 мая, ср
ср1923:00+18всв348064 0.0 1024351
02:00+18св238231 0.0 1023200
05:00+17ссв228411 0.0 1023107
08:00+18св23815 0.0 1024243
11:00+19в44695 0.0 1024558
14:00+20в44685 0.0 1024500
17:00+20всв55695 0.0 1022481
20:00+19всв457143 0.0 1022398